Overview Statistics Trail Chart Weather Telemetry Raw packets
 

This is the latest recevied weather packets stored in our database for station/object OE3XAM-13. If no packets are shown the sender has not sent any weather packets the latest 10 day(s).

<< 1 2 3 4 >>
Time Temp. Humidity Pressure Rain* Wind** Luminosity Snow
1788595888 16.11° C 82% 987 hPa 2.54 mm - - -
1788594088 15.56° C 82% 987 hPa 2.29 mm - - -
1788592288 15.56° C 80% 986 hPa 1.52 mm - - -
1788590488 16.11° C 79% 986 hPa 0.51 mm - - -
1788588688 16.67° C 79% 985 hPa 2.03 mm - - -
1788586888 17.78° C 69% 984 hPa 0.25 mm - - -
1788585088 20.56° C 54% 983 hPa 0 mm - - -
1788583288 21.11° C 59% 982 hPa 0 mm - - -
1788581488 21.11° C 65% 980 hPa 0 mm - - -
1788579688 21.67° C 64% 981 hPa 0 mm - - -
1788577888 21.67° C 63% 981 hPa 0 mm - - -
1788576088 21.67° C 64% 980 hPa 0 mm - - -
1788574303 21.11° C 64% 980 hPa 0 mm - - -
1788572488 21.11° C 60% 979 hPa 0 mm - - -
1788570688 20.56° C 59% 979 hPa 0 mm - - -
1788568888 21.11° C 58% 979 hPa 0 mm - - -
1788567088 21.11° C 55% 978 hPa 0 mm - - -
1788565288 22.22° C 51% 979 hPa 0 mm - - -
1788563488 25° C 40% 978 hPa 0 mm - - -
1788561688 23.89° C 43% 978 hPa 0 mm - - -
1788559888 18.89° C 63% 978 hPa 0 mm - - -
1788558088 18.89° C 63% 978 hPa 0 mm - - -
1788556288 19.44° C 62% 979 hPa 0 mm - - -
1788554488 20° C 59% 977 hPa 0 mm - - -
1788552688 20.56° C 58% 977 hPa 0 mm - - -

* Rain latest hour (hover to see other rain measurements)
** Current wind speed in m/s (hover to see current wind gust speed)